| time (UTC) | temp C | wind direction | speed KPH | gust KPH | rain 1hr cm | rain 24hr cm | rain mn cm | humidity % | barometer mb |
| 20260504100503 | 10 | 265 | 6.4 | 17.7 | 0.00 | 0.00 | 0.00 | 61 | 997.4 |
| 20260504081528 | 10 | 346 | 3.2 | 16.1 | 0.00 | 0.00 | 0.00 | 58 | 997.1 |
| 20260504081013 | 10 | 334 | 1.6 | 9.7 | 0.00 | 0.00 | 0.00 | 58 | 997.2 |
| 20260504080508 | 11 | 327 | 3.2 | 12.9 | 0.00 | 0.00 | 0.00 | 57 | 997.3 |
| 20260504050513 | 17 | 214 | 17.7 | 27.4 | 0.00 | 0.00 | 0.00 | 36 | 994.1 |
| 20260504045507 | 17 | 241 | 17.7 | 30.6 | 0.00 | 0.00 | 0.00 | 36 | 994.4 |
| 20260504045009 | 17 | 244 | 16.1 | 27.4 | 0.00 | 0.00 | 0.00 | 36 | 994.4 |
| 20260504044526 | 17 | 234 | 14.5 | 27.4 | 0.00 | 0.00 | 0.00 | 36 | 994.6 |
| 20260504044010 | 17 | 253 | 16.1 | 30.6 | 0.00 | 0.00 | 0.00 | 36 | 994.8 |
| 20260504043509 | 17 | 232 | 17.7 | 30.6 | 0.00 | 0.00 | 0.00 | 36 | 994.8 |
| 20260504043028 | 16 | 240 | 17.7 | 29.0 | 0.00 | 0.00 | 0.00 | 36 | 994.9 |
| 20260504042505 | 17 | 221 | 19.3 | 35.4 | 0.00 | 0.00 | 0.00 | 36 | 995.0 |
| 20260504042005 | 17 | 219 | 19.3 | 35.4 | 0.00 | 0.00 | 0.00 | 36 | 995.1 |
| 20260504041518 | 17 | 201 | 19.3 | 30.6 | 0.00 | 0.00 | 0.00 | 36 | 995.2 |
| 20260504041007 | 17 | 220 | 16.1 | 32.2 | 0.00 | 0.00 | 0.00 | 36 | 995.4 |
| 20260504040507 | 17 | 220 | 17.7 | 32.2 | 0.00 | 0.00 | 0.00 | 36 | 995.7 |
| 20260504040037 | 17 | 239 | 19.3 | 29.0 | 0.00 | 0.00 | 0.00 | 36 | 995.8 |
| 20260504035510 | 17 | 206 | 17.7 | 29.0 | 0.00 | 0.00 | 0.00 | 35 | 995.9 |
| 20260504035008 | 17 | 230 | 17.7 | 27.4 | 0.00 | 0.00 | 0.00 | 35 | 996.0 |
| 20260504034525 | 17 | 261 | 17.7 | 27.4 | 0.00 | 0.00 | 0.00 | 35 | 996.2 |
| 20260504034004 | 17 | 253 | 14.5 | 25.7 | 0.00 | 0.00 | 0.00 | 35 | 996.3 |
| 20260504033504 | 17 | 229 | 19.3 | 25.7 | 0.00 | 0.00 | 0.00 | 35 | 996.4 |
| 20260504033010 | 17 | 244 | 14.5 | 24.1 | 0.00 | 0.00 | 0.00 | 35 | 996.6 |
| 20260504032503 | 17 | 210 | 14.5 | 24.1 | 0.00 | 0.00 | 0.00 | 35 | 996.6 |
| 20260504032005 | 17 | 225 | 14.5 | 24.1 | 0.00 | 0.00 | 0.00 | 35 | 996.8 |
| 20260504031518 | 17 | 227 | 14.5 | 25.7 | 0.00 | 0.00 | 0.00 | 35 | 996.9 |
| 20260504031010 | 17 | 220 | 14.5 | 25.7 | 0.00 | 0.00 | 0.00 | 34 | 997.0 |
| 20260504030508 | 17 | 218 | 16.1 | 27.4 | 0.00 | 0.00 | 0.00 | 34 | 997.1 |
| 20260504030020 | 17 | 231 | 14.5 | 27.4 | 0.00 | 0.00 | 0.00 | 33 | 997.2 |
| 20260504025507 | 18 | 233 | 16.1 | 27.4 | 0.00 | 0.00 | 0.00 | 33 | 997.3 |
| 20260504025011 | 18 | 239 | 17.7 | 27.4 | 0.00 | 0.00 | 0.00 | 33 | 997.3 |
| 20260504024526 | 18 | 242 | 16.1 | 33.8 | 0.00 | 0.00 | 0.00 | 32 | 997.3 |
| 20260504024009 | 18 | 213 | 17.7 | 33.8 | 0.00 | 0.00 | 0.00 | 32 | 997.4 |
| 20260504023505 | 18 | 215 | 17.7 | 25.7 | 0.00 | 0.00 | 0.00 | 32 | 997.5 |
| 20260504023010 | 18 | 225 | 16.1 | 27.4 | 0.00 | 0.00 | 0.00 | 32 | 997.6 |
| 20260504022504 | 18 | 222 | 16.1 | 27.4 | 0.00 | 0.00 | 0.00 | 31 | 997.6 |
| 20260504022006 | 18 | 231 | 14.5 | 27.4 | 0.00 | 0.00 | 0.00 | 31 | 997.6 |
| 20260504021513 | 18 | 235 | 16.1 | 24.1 | 0.00 | 0.00 | 0.00 | 31 | 997.7 |
| 20260504021008 | 18 | 185 | 14.5 | 24.1 | 0.00 | 0.00 | 0.00 | 31 | 997.8 |
| 20260504020507 | 18 | 234 | 16.1 | 24.1 | 0.00 | 0.00 | 0.00 | 997.9 | |
| 20260504020018 | 18 | 226 | 9.7 | 19.3 | 0.00 | 0.00 | 0.00 | 998.1 | |
| 20260504015508 | 18 | 206 | 11.3 | 17.7 | 0.00 | 0.00 | 0.00 | 998.3 | |
| 20260504015012 | 18 | 216 | 9.7 | 16.1 | 0.00 | 0.00 | 0.00 | 29 | 998.4 |
| 20260504014525 | 19 | 202 | 8.0 | 17.7 | 0.00 | 0.00 | 0.00 | 29 | 998.5 |
| 20260504014009 | 20 | 211 | 9.7 | 19.3 | 0.00 | 0.00 | 0.00 | 29 | 998.5 |
| 20260504013509 | 20 | 234 | 9.7 | 19.3 | 0.00 | 0.00 | 0.00 | 28 | 998.6 |
| 20260504013025 | 20 | 235 | 9.7 | 17.7 | 0.00 | 0.00 | 0.00 | 28 | 998.7 |
| 20260504012507 | 20 | 216 | 11.3 | 17.7 | 0.00 | 0.00 | 0.00 | 28 | 998.8 |
| 20260504012004 | 20 | 225 | 11.3 | 17.7 | 0.00 | 0.00 | 0.00 | 28 | 998.9 |
| 20260504011513 | 20 | 242 | 12.9 | 17.7 | 0.00 | 0.00 | 0.00 | 27 | 998.9 |
| 20260504011007 | 21 | 234 | 12.9 | 17.7 | 0.00 | 0.00 | 0.00 | 27 | 999.0 |
| 20260504010508 | 21 | 246 | 9.7 | 17.7 | 0.00 | 0.00 | 0.00 | 27 | 999.1 |
| 20260504010016 | 21 | 224 | 9.7 | 17.7 | 0.00 | 0.00 | 0.00 | 27 | 999.3 |
| 20260504005507 | 21 | 241 | 11.3 | 17.7 | 0.00 | 0.00 | 0.00 | 26 | 999.5 |
| 20260504005008 | 21 | 238 | 9.7 | 17.7 | 0.00 | 0.00 | 0.00 | 26 | 999.7 |
| 20260504004533 | 21 | 229 | 12.9 | 16.1 | 0.00 | 0.00 | 0.00 | 26 | 999.8 |
| 20260504004009 | 21 | 273 | 9.7 | 19.3 | 0.00 | 0.00 | 0.00 | 26 | 1000.0 |
| 20260504003510 | 21 | 288 | 11.3 | 25.7 | 0.00 | 0.00 | 0.00 | 26 | 1000.1 |
| 20260504003025 | 21 | 262 | 12.9 | 33.8 | 0.00 | 0.00 | 0.00 | 25 | 1000.2 |
| 20260504002509 | 21 | 270 | 20.9 | 33.8 | 0.00 | 0.00 | 0.00 | 25 | 1000.3 |
| 20260504002005 | 21 | 276 | 20.9 | 33.8 | 0.00 | 0.00 | 0.00 | 24 | 1000.4 |
| 20260504001509 | 22 | 278 | 19.3 | 33.8 | 0.00 | 0.00 | 0.00 | 24 | 1000.5 |
| 20260504001007 | 21 | 315 | 17.7 | 32.2 | 0.00 | 0.00 | 0.00 | 25 | 1000.5 |
| 20260504000504 | 22 | 239 | 12.9 | 29.0 | 0.00 | 0.00 | 0.00 | 25 | 1000.6 |
| 20260504000015 | 22 | 294 | 17.7 | 29.0 | 0.00 | 0.00 | 0.00 | 25 | 1000.7 |
| 20260503235506 | 22 | 265 | 16.1 | 30.6 | 0.00 | 0.00 | 0.00 | 25 | 1000.8 |
| 20260503235007 | 22 | 309 | 16.1 | 30.6 | 0.00 | 0.00 | 0.00 | 25 | 1000.9 |
| 20260503234523 | 22 | 274 | 20.9 | 30.6 | 0.00 | 0.00 | 0.00 | 25 | 1001.0 |
| 20260503234006 | 21 | 269 | 17.7 | 29.0 | 0.00 | 0.00 | 0.00 | 25 | 1001.1 |
| 20260503233505 | 22 | 252 | 17.7 | 29.0 | 0.00 | 0.00 | 0.00 | 25 | 1001.2 |
| 20260503233023 | 22 | 333 | 14.5 | 32.2 | 0.00 | 0.00 | 0.00 | 25 | 1001.3 |
| 20260503232510 | 22 | 253 | 20.9 | 32.2 | 0.00 | 0.00 | 0.00 | 25 | 1001.3 |
| 20260503232008 | 22 | 259 | 19.3 | 30.6 | 0.00 | 0.00 | 0.00 | 25 | 1001.5 |
| 20260503231526 | 22 | 250 | 16.1 | 40.2 | 0.00 | 0.00 | 0.00 | 26 | 1001.7 |
| 20260503231007 | 22 | 269 | 25.7 | 40.2 | 0.00 | 0.00 | 0.00 | 25 | 1001.8 |
| 20260503230504 | 22 | 273 | 19.3 | 30.6 | 0.00 | 0.00 | 0.00 | 25 | 1001.9 |
| 20260503230012 | 22 | 279 | 14.5 | 40.2 | 0.00 | 0.00 | 0.00 | 25 | 1001.9 |
| 20260503225505 | 22 | 265 | 22.5 | 40.2 | 0.00 | 0.00 | 0.00 | 24 | 1002.1 |
| 20260503225009 | 22 | 324 | 16.1 | 40.2 | 0.00 | 0.00 | 0.00 | 24 | 1002.1 |
| 20260503224521 | 23 | 271 | 20.9 | 40.2 | 0.00 | 0.00 | 0.00 | 24 | 1002.2 |
| 20260503224008 | 23 | 270 | 19.3 | 29.0 | 0.00 | 0.00 | 0.00 | 24 | 1002.3 |
| 20260503223508 | 23 | 313 | 14.5 | 33.8 | 0.00 | 0.00 | 0.00 | 24 | 1002.2 |
| 20260503223026 | 23 | 300 | 16.1 | 33.8 | 0.00 | 0.00 | 0.00 | 25 | 1002.3 |
| 20260503222506 | 22 | 265 | 14.5 | 32.2 | 0.00 | 0.00 | 0.00 | 24 | 1002.3 |
| 20260503222012 | 22 | 304 | 22.5 | 30.6 | 0.00 | 0.00 | 0.00 | 25 | 1002.5 |
| 20260503221527 | 22 | 294 | 20.9 | 30.6 | 0.00 | 0.00 | 0.00 | 24 | 1002.6 |
| 20260503221012 | 22 | 227 | 14.5 | 30.6 | 0.00 | 0.00 | 0.00 | 25 | 1002.7 |
| 20260503220514 | 23 | 316 | 11.3 | 32.2 | 0.00 | 0.00 | 0.00 | 26 | 1002.8 |
| 20260503220013 | 22 | 252 | 22.5 | 32.2 | 0.00 | 0.00 | 0.00 | 25 | 1002.9 |
| 20260503215507 | 22 | 269 | 16.1 | 27.4 | 0.00 | 0.00 | 0.00 | 26 | 1003.1 |
| 20260503215006 | 22 | 292 | 14.5 | 30.6 | 0.00 | 0.00 | 0.00 | 25 | 1003.2 |
| 20260503214518 | 22 | 347 | 16.1 | 30.6 | 0.00 | 0.00 | 0.00 | 26 | 1003.4 |
| 20260503214005 | 22 | 271 | 16.1 | 30.6 | 0.00 | 0.00 | 0.00 | 25 | 1003.4 |
| 20260503213511 | 22 | 275 | 9.7 | 30.6 | 0.00 | 0.00 | 0.00 | 27 | 1003.5 |
| 20260503213021 | 22 | 277 | 19.3 | 32.2 | 0.00 | 0.00 | 0.00 | 25 | 1003.6 |
| 20260503212508 | 22 | 274 | 17.7 | 32.2 | 0.00 | 0.00 | 0.00 | 27 | 1003.7 |
| 20260503212012 | 22 | 311 | 11.3 | 32.2 | 0.00 | 0.00 | 0.00 | 26 | 1003.8 |
| 20260503211527 | 22 | 269 | 17.7 | 25.7 | 0.00 | 0.00 | 0.00 | 27 | 1003.8 |
| 20260503211016 | 22 | 281 | 12.9 | 27.4 | 0.00 | 0.00 | 0.00 | 26 | 1004.1 |
| 20260503210513 | 22 | 260 | 16.1 | 27.4 | 0.00 | 0.00 | 0.00 | 28 | 1004.3 |
| 20260503210026 | 22 | 317 | 12.9 | 24.1 | 0.00 | 0.00 | 0.00 | 28 | 1004.3 |
| 20260503205514 | 22 | 298 | 8.0 | 27.4 | 0.00 | 0.00 | 0.00 | 29 | 1004.3 |
| 20260503205004 | 22 | 267 | 17.7 | 29.0 | 0.00 | 0.00 | 0.00 | 27 | 1004.5 |
| 20260503204526 | 21 | 287 | 17.7 | 29.0 | 0.00 | 0.00 | 0.00 | 27 | 1004.4 |
| 20260503204016 | 22 | 283 | 11.3 | 22.5 | 0.00 | 0.00 | 0.00 | 27 | 1004.6 |
| 20260503203507 | 21 | 233 | 9.7 | 20.9 | 0.00 | 0.00 | 0.00 | 28 | 1004.6 |
| 20260503203020 | 21 | 338 | 9.7 | 20.9 | 0.00 | 0.00 | 0.00 | 29 | 1004.8 |
| 20260503202510 | 21 | 269 | 16.1 | 29.0 | 0.00 | 0.00 | 0.00 | 28 | 1004.9 |
| 20260503202010 | 21 | 263 | 11.3 | 29.0 | 0.00 | 0.00 | 0.00 | 27 | 1005.0 |
| 20260503201526 | 21 | 304 | 16.1 | 27.4 | 0.00 | 0.00 | 0.00 | 27 | 1005.2 |
| 20260503201006 | 21 | 271 | 12.9 | 30.6 | 0.00 | 0.00 | 0.00 | 29 | 1005.2 |
| 20260503200507 | 21 | 262 | 9.7 | 30.6 | 0.00 | 0.00 | 0.00 | 31 | 1005.5 |
| 20260503200027 | 21 | 319 | 11.3 | 27.4 | 0.00 | 0.00 | 0.00 | 29 | 1005.6 |
| 20260503195512 | 21 | 262 | 12.9 | 25.7 | 0.00 | 0.00 | 0.00 | 30 | 1005.8 |
| 20260503195010 | 21 | 279 | 12.9 | 30.6 | 0.00 | 0.00 | 0.00 | 30 | 1006.0 |
| 20260503194531 | 21 | 264 | 17.7 | 30.6 | 0.00 | 0.00 | 0.00 | 29 | 1006.1 |
| 20260503194004 | 21 | 259 | 11.3 | 25.7 | 0.00 | 0.00 | 0.00 | 30 | 1006.2 |
| 20260503193510 | 21 | 248 | 11.3 | 25.7 | 0.00 | 0.00 | 0.00 | 29 | 1006.4 |
| 20260503193036 | 21 | 269 | 11.3 | 22.5 | 0.00 | 0.00 | 0.00 | 31 | 1006.4 |
| 20260503192507 | 20 | 277 | 11.3 | 22.5 | 0.00 | 0.00 | 0.00 | 30 | 1006.4 |
| 20260503192008 | 21 | 341 | 6.4 | 19.3 | 0.00 | 0.00 | 0.00 | 29 | 1006.5 |
| 20260503191522 | 20 | 313 | 8.0 | 22.5 | 0.00 | 0.00 | 0.00 | 30 | 1006.6 |
| 20260503191014 | 21 | 298 | 11.3 | 22.5 | 0.00 | 0.00 | 0.00 | 29 | 1006.7 |
| 20260503190507 | 20 | 351 | 4.8 | 25.7 | 0.00 | 0.00 | 0.00 | 34 | 1006.9 |
| 20260503190027 | 20 | 254 | 12.9 | 24.1 | 0.00 | 0.00 | 0.00 | 28 | 1007.0 |
| 20260503185509 | 20 | 310 | 11.3 | 24.1 | 0.00 | 0.00 | 0.00 | 31 | 1007.1 |
| 20260503185008 | 20 | 337 | 8.0 | 24.1 | 0.00 | 0.00 | 0.00 | 28 | 1007.2 |
| 20260503184529 | 20 | 277 | 14.5 | 22.5 | 0.00 | 0.00 | 0.00 | 30 | 1007.4 |
| 20260503184010 | 20 | 319 | 6.4 | 22.5 | 0.00 | 0.00 | 0.00 | 29 | 1007.4 |
| 20260503183507 | 20 | 350 | 11.3 | 22.5 | 0.00 | 0.00 | 0.00 | 30 | 1007.6 |
| 20260503183018 | 20 | 334 | 4.8 | 16.1 | 0.00 | 0.00 | 0.00 | 30 | 1007.8 |
| 20260503182509 | 20 | 314 | 4.8 | 19.3 | 0.00 | 0.00 | 0.00 | 31 | 1007.9 |
| 20260503182009 | 19 | 350 | 6.4 | 22.5 | 0.00 | 0.00 | 0.00 | 28 | 1008.1 |
| 20260503181505 | 19 | 286 | 8.0 | 22.5 | 0.00 | 0.00 | 0.00 | 32 | 1008.1 |
| 20260503181003 | 18 | 257 | 11.3 | 29.0 | 0.00 | 0.00 | 0.00 | 30 | 1008.3 |
| 20260503180503 | 18 | 292 | 11.3 | 29.0 | 0.00 | 0.00 | 0.00 | 30 | 1008.4 |
| 20260503180016 | 18 | 360 | 6.4 | 25.7 | 0.00 | 0.00 | 0.00 | 30 | 1008.4 |
| 20260503175504 | 18 | 267 | 12.9 | 24.1 | 0.00 | 0.00 | 0.00 | 31 | 1008.5 |
| 20260503175003 | 18 | 328 | 4.8 | 17.7 | 0.00 | 0.00 | 0.00 | 35 | 1008.7 |
| 20260503174510 | 17 | 289 | 0.0 | 20.9 | 0.00 | 0.00 | 0.00 | 34 | 1008.7 |
| 20260503174006 | 17 | 334 | 11.3 | 22.5 | 0.00 | 0.00 | 0.00 | 31 | 1009.0 |
| 20260503173506 | 18 | 265 | 16.1 | 22.5 | 0.00 | 0.00 | 0.00 | 33 | 1009.1 |
| 20260503173023 | 18 | 301 | 8.0 | 19.3 | 0.00 | 0.00 | 0.00 | 35 | 1009.2 |
| 20260503172510 | 18 | 13 | 9.7 | 19.3 | 0.00 | 0.00 | 0.00 | 36 | 1009.2 |
| 20260503172010 | 17 | 322 | 8.0 | 20.9 | 0.00 | 0.00 | 0.00 | 36 | 1009.1 |
| 20260503171523 | 17 | 259 | 4.8 | 20.9 | 0.00 | 0.00 | 0.00 | 35 | 1009.3 |
| 20260503171005 | 17 | 281 | 6.4 | 14.5 | 0.00 | 0.00 | 0.00 | 35 | 1009.3 |
| 20260503170504 | 17 | 262 | 4.8 | 20.9 | 0.00 | 0.00 | 0.00 | 36 | 1009.4 |
| 20260503151008 | 12 | 294 | 3.2 | 9.7 | 0.00 | 0.00 | 0.00 | 47 | 1010.8 |
| 20260503150508 | 13 | 338 | 3.2 | 8.0 | 0.00 | 0.00 | 0.00 | 45 | 1010.7 |
| 20260503131012 | 7 | 334 | 1.6 | 6.4 | 0.00 | 0.00 | 0.00 | 57 | 1010.9 |
| 20260503130507 | 7 | 339 | 0.0 | 6.4 | 0.00 | 0.00 | 0.00 | 56 | 1010.9 |
| 20260503110503 | 5 | 335 | 0.0 | 4.8 | 0.00 | 0.00 | 0.00 | 60 | 1009.7 |